Almaty, Kazakhstan

7:45 PM +06 on October 17, 2017 (GMT +0600)
Almaty

Weather History for UAAA - April, 2012

Change the Weather History Date:

Wednesday, April 25, 2012

  Actual Average Record
Temperature  
Mean Temperature 65 °F -  
Max Temperature 76 °F 65 °F 87 °F (2011)
Min Temperature 54 °F 42 °F 26 °F (1999)
Growing Degree Days 15 (Base 50)    
Moisture  
Dew Point 31 °F    
Average Humidity 31    
Maximum Humidity 62    
Minimum Humidity 11    
Precipitation  
Precipitation 0.00 in - - ()
Sea Level Pressure  
Sea Level Pressure 29.97 in    
Wind  
Wind Speed 4 mph ()    
Max Wind Speed 9 mph    
Max Gust Speed -    
Visibility 5.8 miles    
Events      
Averages and records for this station are not official NWS values.
T = Trace of Precipitation, MM = Missing Value Source: Averaged Metar Reports

Daily Weather History Graph

Daily Weather History Graph

Search for Another Location

Airport or City:

Trip Planner

Search our weather history database for the weather conditions in past years. The results will help you decide how hot, cold, wet, or windy it might be!

Date:

Astronomy

Apr. 25, 2012 Rise Set
Actual Time 5:54 AM +06 7:46 PM +06
Civil Twilight 5:23 AM +06 8:17 PM +06
Nautical Twilight 4:46 AM +06 8:55 PM +06
Astronomical Twilight 4:06 AM +06 9:35 PM +06
Moon 8:11 AM +06 (4/25) 11:36 PM +06 (4/25)
Length of Visible Light 14h 53m
Length of Day
13h 52m
Waxing Crescent, 13% of the Moon is Illuminated
Apr 25
Waxing Crescent
Apr 29
First Quarter
May 6
Full
May 13
Last Quarter
May 21
New

Hourly Weather History & Observations

Time (+06) Temp. Dew Point Humidity Pressure Visibility Wind Dir Wind Speed Gust Speed Precip Events Conditions
12:00 AM 61 °F 34 °F 24% 29.93 in - SSE 2.2 mph - -   Overcast
12:00 AM 55.4 °F 35.6 °F 47% 29.98 in 6.2 mi South 4.5 mph - N/A   Mostly Cloudy
12:30 AM 55.4 °F 35.6 °F 47% 29.98 in 6.2 mi SSE 6.7 mph - N/A   Mostly Cloudy
1:00 AM 53.6 °F 35.6 °F 51% 29.98 in 6.2 mi South 4.5 mph - N/A   Mostly Cloudy
1:30 AM 53.6 °F 35.6 °F 51% 29.98 in 6.2 mi SSW 6.7 mph - N/A   Mostly Cloudy
2:00 AM 53.6 °F 35.6 °F 51% 29.98 in 6.2 mi South 6.7 mph - N/A   Mostly Cloudy
2:30 AM 53.6 °F 35.6 °F 51% 29.98 in 6.2 mi WSW 4.5 mph - N/A   Mostly Cloudy
3:00 AM 57 °F 36 °F 33% 29.96 in - Calm Calm - -   Overcast
3:00 AM 51.8 °F 35.6 °F 54% 29.98 in 6.2 mi South 6.7 mph - N/A   Scattered Clouds
3:30 AM 51.8 °F 35.6 °F 54% 29.98 in 6.2 mi SSW 4.5 mph - N/A   Partly Cloudy
4:00 AM 50.0 °F 35.6 °F 58% 29.98 in 6.2 mi WSW 6.7 mph - N/A   Partly Cloudy
4:30 AM 51.8 °F 35.6 °F 54% 29.98 in 6.2 mi WSW 4.5 mph - N/A   Partly Cloudy
5:00 AM 50.0 °F 35.6 °F 58% 29.98 in 6.2 mi South 6.7 mph - N/A   Scattered Clouds
5:30 AM 51.8 °F 35.6 °F 54% 29.98 in 6.2 mi South 6.7 mph - N/A   Mostly Cloudy
6:00 AM 55 °F 36 °F 37% 29.96 in 6 mi Calm Calm - -   Overcast
6:00 AM 48.2 °F 35.6 °F 62% 29.98 in 6.2 mi West 4.5 mph - N/A   Mostly Cloudy
6:30 AM 50.0 °F 35.6 °F 58% 29.98 in 6.2 mi SSW 4.5 mph - N/A   Mostly Cloudy
7:00 AM 51.8 °F 37.4 °F 58% 29.98 in 6.2 mi South 4.5 mph - N/A   Mostly Cloudy
7:30 AM 55.4 °F 39.2 °F 54% 29.98 in 6.2 mi South 4.5 mph - N/A   Mostly Cloudy
8:00 AM 60.8 °F 41.0 °F 48% 30.01 in 6.2 mi SSW 4.5 mph - N/A   Mostly Cloudy
8:30 AM 62.6 °F 41.0 °F 45% 30.01 in 6.2 mi Variable 2.2 mph - N/A   Mostly Cloudy
9:00 AM 65 °F 34 °F 20% 29.93 in 6 mi Calm Calm - -   Partly Cloudy
9:00 AM 64.4 °F 33.8 °F 32% 30.01 in 6.2 mi NNW 4.5 mph - N/A   Scattered Clouds
9:30 AM 66.2 °F 30.2 °F 26% 30.01 in 6.2 mi NW 8.9 mph - N/A   Scattered Clouds
10:00 AM 68.0 °F 30.2 °F 24% 30.01 in 6.2 mi WNW 6.7 mph - N/A   Partly Cloudy
10:30 AM 68.0 °F 32.0 °F 26% 30.01 in 6.2 mi WNW 6.7 mph - N/A   Partly Cloudy
11:00 AM 69.8 °F 30.2 °F 23% 30.01 in 6.2 mi WNW 6.7 mph - N/A   Partly Cloudy
11:30 AM 71.6 °F 30.2 °F 22% 30.01 in 6.2 mi NW 6.7 mph - N/A   Partly Cloudy
12:00 PM 72 °F 32 °F 13% 29.89 in 6 mi Calm Calm - -   Overcast
12:00 PM 73.4 °F 30.2 °F 20% 30.01 in 6.2 mi WNW 8.9 mph - N/A   Partly Cloudy
12:30 PM 75.2 °F 24.8 °F 15% 30.01 in 6.2 mi WNW 6.7 mph - N/A   Partly Cloudy
1:00 PM 75.2 °F 21.2 °F 13% 29.98 in 6.2 mi WNW 8.9 mph - N/A   Partly Cloudy
1:30 PM 75.2 °F 24.8 °F 15% 29.98 in 6.2 mi West 6.7 mph - N/A   Unknown
2:00 PM 77.0 °F 19.4 °F 12% 29.98 in 6.2 mi NNW 6.7 mph - N/A   Unknown
2:30 PM 77.0 °F 17.6 °F 11% 29.98 in 6.2 mi NW 6.7 mph - N/A   Unknown
3:00 PM 76 °F 31 °F 11% 29.86 in 6 mi Calm Calm - -   Clear
3:00 PM 78.8 °F 21.2 °F 12% 29.98 in 6.2 mi NW 6.7 mph - N/A   Unknown
3:30 PM 78.8 °F 19.4 °F 11% 29.98 in 6.2 mi North 8.9 mph - N/A   Unknown
4:00 PM 78.8 °F 23.0 °F 13% 29.98 in 6.2 mi West 6.7 mph - N/A   Unknown
4:30 PM 77.0 °F 19.4 °F 12% 29.98 in 6.2 mi North 4.5 mph - N/A   Unknown
5:00 PM 77.0 °F 21.2 °F 12% 29.95 in 6.2 mi North 6.7 mph - N/A   Unknown
5:30 PM 77.0 °F 21.2 °F 12% 29.95 in 6.2 mi North 4.5 mph - N/A   Unknown
6:00 PM 74 °F 31 °F 11% 29.85 in 6 mi Calm Calm - -   Scattered Clouds
6:00 PM 77.0 °F 24.8 °F 14% 29.95 in 6.2 mi NNW 4.5 mph - N/A   Unknown
6:30 PM 75.2 °F 24.8 °F 15% 29.95 in 6.2 mi NNW 4.5 mph - N/A   Unknown
7:00 PM 71.6 °F 26.6 °F 19% 29.95 in 6.2 mi WNW 4.5 mph - N/A   Unknown
7:30 PM 71.6 °F 24.8 °F 17% 29.95 in 6.2 mi WNW 4.5 mph - N/A   Unknown
8:00 PM 66.2 °F 32.0 °F 28% 29.95 in 1.7 mi SSE 6.7 mph - N/A   Smoke
8:30 PM 64.4 °F 30.2 °F 28% 29.95 in - South 4.5 mph - N/A   Smoke
9:00 PM 66 °F 31 °F 16% 29.91 in - Calm Calm - -   Clear
9:00 PM 62.6 °F 28.4 °F 27% 29.98 in 3.1 mi South 4.5 mph - N/A   Smoke
9:30 PM 60.8 °F 30.2 °F 31% 29.98 in 3.1 mi SSW 6.7 mph - N/A   Smoke
10:00 PM 59.0 °F 30.2 °F 34% 29.98 in 2.2 mi South 6.7 mph - N/A   Smoke
10:30 PM 59.0 °F 30.2 °F 34% 29.95 in - South 4.5 mph - N/A   Smoke
11:00 PM 57.2 °F 32.0 °F 38% 29.95 in 3.1 mi SSW 6.7 mph - N/A   Smoke
11:30 PM 55.4 °F 33.8 °F 44% 29.95 in 3.1 mi South 4.5 mph - N/A   Smoke